EHI
8 4 1 0 0 0 0 0 0 0 0 0 0 0 0 1 0 0 0 0 0 0 1 2 3 3 1 0 0 0 0 0 0 1 3 3 3 3 4 4 4 3 3 2 1 0 0 0 0
3 2 1 0 0 0 0 0 0 0 0 0 0 0 0 1 0 0 0 0 0 0 0 2 4 4 2 1 1 1 1 0 0 0 1 2 3 3 3 4 3 3 2 1 0 0 0 0 0
1 2 1 0 0 0 0 0 0 0 0 0 0 0 0 0 0 0 0 0 0 0 0 2 5 5 4 3 2 2 2 1 1 1 1 2 3 3 3 3 2 1 1 0 0 0 0 0 0
1 1 1 0 0 0 0 0 0 0 0 0 0 0 0 0 0 0 0 0 0 0 0 2 5 6 5 4 3 3 3 3 2 2 2 3 3 3 2 2 1 0 0 0 0 0 0 0 0
0 0 0 0 0 0 0 0 0 0 0 0 0 0 0 0 0 0 0 0 0 0 0 1 4 6 6 5 4 3 3 2 3 3 3 3 3 3 3 2 1 0 0 0 0 0 0 0 0
0 0 0 0 0 0 0 0 0 0 0 0 0 0 0 0 0 0 1 0 0 0 0 1 3 4 4 4 3 2 1 1 1 2 2 2 3 3 3 3 2 0 0 0 0 0 0 0 0
0 0 0 0 0 0 0 0 1 1 0 0 0 0 0 0 0 1 2 1 0 0 0 0 1 2 2 2 2 2 1 0 0 1 1 1 1 2 2 2 1 0 0 0 0 0 0 0 0
0 0 0 0 0 0 0 0 1 2 1 0 0 0 1 2 2 2 1 0 0 0 0 0 0 0 1 1 1 1 1 0 0 0 0 0 0 1 1 1 0 0 0 0 0 0 0 0 0
0 0 0 0 0 0 0 0 1 2 1 0 0 2 4 6 7 5 2 1 0 0 1 1 1 0 0 0 1 1 0 0 0 0 0 0 0 0 0 0 0 0 0 0 0 0 0 0 0
0 0 0 0 0 0 0 0 1 1 1 0 1 4 8 10 10 7 3 1 0 0 1 2 2 0 0 0 0 0 0 0 0 0 0 0 0 0 0 0 0 0 0 0 0 0 0 0 0
1 1 0 0 1 1 0 0 0 0 0 0 2 7 12 12 10 8 4 1 1 0 1 1 1 0 0 0 0 0 0 0 0 0 0 0 0 0 0 0 0 0 0 0 0 0 0 0 0
2 2 1 0 1 1 1 0 0 0 1 2 4 9 13 12 10 8 4 2 2 1 1 1 0 0 0 0 0 0 0 0 0 0 0 0 0 0 0 0 0 0 0 0 0 0 0 0 0
2 2 1 0 1 1 1 0 0 1 3 5 7 11 14 12 8 6 4 3 3 2 2 1 0 0 0 0 0 0 0 0 0 0 0 0 0 0 0 0 0 0 0 0 0 0 0 0 0
1 1 0 0 0 0 0 0 1 4 7 9 9 11 12 9 6 5 4 3 3 2 1 1 0 0 0 0 0 0 0 0 0 0 0 0 0 0 0 0 0 0 0 0 0 0 0 0 0
0 0 0 0 0 0 0 0 2 8 13 12 9 9 8 6 4 4 4 3 2 1 1 1 1 1 0 0 0 0 0 0 0 0 0 0 0 0 0 0 0 0 0 0 0 0 0 0 0
0 0 0 0 0 0 0 0 3 10 14 11 8 7 6 5 4 3 2 3 3 2 1 1 3 2 1 0 0 0 0 0 0 0 0 0 0 0 0 0 0 0 0 0 0 0 0 0 0
0 0 0 0 0 0 0 0 3 10 13 9 6 7 7 6 4 3 3 3 5 4 2 2 3 2 1 0 0 1 1 1 0 0 0 0 0 0 0 0 0 0 0 0 0 0 0 0 0
0 0 0 0 0 0 1 2 6 10 11 8 5 6 7 7 5 4 5 4 5 6 5 3 2 2 1 1 1 2 2 1 1 0 0 0 0 0 0 0 0 0 0 0 0 0 0 0 0
0 0 0 1 2 1 2 5 9 10 9 7 6 6 8 7 6 6 7 6 5 7 6 5 4 3 3 3 3 2 1 1 1 1 1 0 0 0 0 0 0 0 0 0 0 0 0 0 0
0 0 0 2 3 3 3 6 10 10 8 7 6 7 9 9 8 8 8 8 8 7 6 6 5 4 4 4 3 2 0 0 1 2 2 0 0 0 0 0 0 0 0 0 0 0 0 0 0
0 0 0 1 3 3 4 6 9 9 7 5 5 7 10 10 9 8 9 11 12 9 7 7 7 6 5 5 4 2 1 0 1 1 1 0 0 0 0 0 0 0 0 0 0 0 0 0 0
0 0 0 1 3 3 3 4 5 7 6 4 4 7 9 10 10 9 10 12 13 13 11 9 9 8 7 6 5 3 2 1 0 0 0 0 0 0 0 0 0 0 0 0 0 0 0 0 0
0 0 0 1 2 3 3 3 3 4 5 5 6 7 8 10 11 11 11 12 13 15 15 13 12 11 11 9 6 4 2 1 0 0 0 0 0 0 0 0 0 0 0 0 0 0 0 0 0
0 0 0 1 1 2 2 2 1 2 4 6 7 8 9 9 10 12 14 14 16 20 20 17 16 15 13 11 7 4 3 1 0 0 0 0 0 0 0 0 0 0 0 0 0 0 0 0 0
0 0 0 0 0 1 1 1 1 1 3 5 7 8 9 9 9 13 17 18 21 24 24 22 20 17 13 10 7 5 2 1 1 1 1 1 1 0 0 0 0 0 0 0 0 0 0 0 0
0 0 0 0 0 0 0 0 2 3 4 6 7 8 9 9 10 14 17 19 21 24 26 25 21 16 11 8 7 5 3 3 3 3 2 2 1 0 0 0 0 0 0 0 0 0 0 0 0
0 0 0 0 0 0 0 2 4 6 7 8 8 8 9 10 11 14 16 16 18 21 25 24 20 15 10 8 7 6 6 5 5 4 3 2 1 0 0 0 0 0 0 0 1 0 0 0 0
0 0 0 0 0 0 0 2 4 6 8 9 8 8 9 10 11 13 13 12 14 18 22 21 18 15 12 9 8 7 7 5 4 3 2 1 0 0 0 0 0 0 0 0 0 0 0 0 0
0 0 0 0 0 0 0 1 2 5 7 9 8 8 9 10 12 12 10 10 11 15 18 17 16 15 12 9 8 8 6 3 2 1 1 0 0 0 0 0 0 1 0 0 0 0 0 0 0
0 0 0 0 0 0 0 0 1 4 7 9 10 10 10 11 12 11 9 9 11 14 16 15 14 13 11 9 9 7 5 3 2 1 1 0 0 0 0 0 0 1 0 0 0 0 0 0 0
Wind_Speed
8 6 3 2 6 6 4 4 2 3 4 4 6 7 6 4 2 4 1 5 6 4 3 6 9 10 10 11 11 11 12 12 12 12 12 12 12 12 13 14 14 14 14 14 14 14 14 13 13
6 5 2 4 6 4 3 3 3 4 3 3 6 6 6 5 4 6 3 4 6 5 4 5 9 9 10 10 11 11 11 11 11 11 11 11 12 12 13 13 13 13 13 13 14 14 13 13 13
6 3 4 5 5 3 2 1 4 4 3 3 4 5 5 3 4 4 4 7 6 4 3 5 10 9 10 10 10 10 10 11 11 11 11 11 11 11 12 12 13 13 13 13 13 13 13 12 12
3 3 5 6 4 0 3 3 4 5 5 6 4 5 4 3 4 5 8 8 6 4 3 4 9 9 9 9 10 10 10 10 10 10 10 11 11 11 11 12 12 12 12 12 12 12 12 11 11
3 5 7 5 3 2 2 3 3 4 4 5 5 5 4 4 8 10 8 7 6 4 2 3 8 9 9 9 9 9 9 9 10 10 10 10 10 10 10 11 11 10 11 11 11 11 10 10 10
5 6 6 2 2 3 2 3 4 6 6 5 5 4 3 3 7 8 7 6 5 4 3 3 7 8 8 8 8 8 9 9 9 9 9 9 9 9 10 9 9 10 10 10 11 10 9 9 9
5 5 4 3 2 1 2 3 4 5 5 3 4 4 2 2 4 6 6 5 4 4 3 2 2 4 6 7 7 8 8 8 8 8 8 9 9 9 9 8 9 9 9 9 10 9 9 9 8
5 6 4 2 2 1 3 3 3 5 4 4 4 6 4 4 7 7 6 5 4 3 3 3 3 3 3 3 6 7 7 7 7 7 7 8 8 8 8 7 7 9 8 8 8 8 8 7 7
5 6 3 4 5 3 4 4 3 4 5 2 3 4 6 12 10 7 5 3 2 2 1 2 2 2 2 1 3 4 5 5 5 4 6 5 3 4 3 5 7 8 7 7 7 6 7 6 6
5 4 5 4 5 6 6 5 5 4 4 2 5 6 11 12 10 8 7 6 5 4 3 2 2 2 1 1 2 2 2 2 3 3 3 3 2 2 2 3 6 6 5 5 5 5 6 5 3
4 4 3 2 4 7 6 4 3 7 3 5 7 10 12 11 8 7 7 6 5 4 4 3 3 2 2 1 1 1 1 1 2 2 2 2 2 2 2 2 2 3 3 3 3 4 3 3 2
4 1 3 4 5 6 6 5 4 2 3 5 9 12 12 11 9 8 7 6 4 4 4 3 3 3 2 1 1 1 1 1 0 1 1 1 1 1 1 1 1 1 1 1 2 1 2 2 2
4 2 3 5 7 6 7 5 4 2 5 9 10 10 9 9 7 6 5 5 4 4 4 3 3 3 2 1 1 1 1 1 1 1 1 2 1 1 1 1 1 1 1 1 1 1 1 1 1
3 4 5 6 6 4 6 3 3 3 7 9 9 7 7 7 7 5 5 5 5 4 4 3 3 3 3 2 2 1 1 1 1 1 1 2 2 2 1 1 0 0 0 0 1 1 1 0 0
5 7 6 4 4 3 6 3 0 4 8 8 7 5 5 4 5 6 6 5 5 4 3 3 3 3 3 3 2 2 2 2 1 1 2 2 2 2 2 1 1 1 0 1 1 1 1 1 0
5 6 3 0 3 3 6 1 2 6 8 6 5 4 4 3 4 4 5 4 4 4 4 3 3 4 3 3 2 1 2 2 2 2 2 2 3 3 2 1 1 1 1 1 1 1 1 0 1
5 3 1 1 2 3 4 2 2 5 7 6 4 4 4 3 2 3 4 5 4 5 4 3 2 3 3 3 2 2 1 1 1 1 2 2 3 3 2 2 1 1 1 1 1 1 1 1 1
2 2 1 2 1 4 3 1 2 5 6 5 4 3 3 3 3 2 3 4 4 4 4 3 3 3 2 2 2 1 1 1 1 1 2 3 3 3 3 2 2 2 1 1 1 1 1 1 1
5 4 2 1 1 4 3 2 2 4 5 5 4 4 4 4 2 2 3 4 4 3 3 3 3 2 2 2 2 1 1 1 1 1 2 2 3 3 3 2 2 2 2 2 2 2 1 1 1
4 4 2 2 2 4 3 1 1 3 5 6 6 6 5 4 3 3 4 4 4 4 3 3 3 3 3 2 2 2 1 1 1 1 1 2 2 3 3 3 3 3 2 2 2 2 1 1 2
2 5 5 4 3 5 4 4 1 1 2 3 4 5 5 6 6 4 4 4 4 4 4 4 3 3 3 2 2 1 1 1 1 0 1 1 2 2 2 4 3 3 3 3 3 3 3 2 2
2 3 6 6 5 1 2 1 5 2 3 4 4 5 5 5 5 5 4 4 5 4 4 3 3 2 2 2 2 2 2 2 2 1 1 1 1 1 2 3 3 3 2 3 3 3 3 3 2
3 4 6 5 5 3 3 2 7 1 4 6 6 6 6 5 6 6 5 5 4 4 3 3 2 2 2 2 2 2 1 1 1 1 1 1 1 1 2 2 2 3 2 3 3 3 3 3 3
7 8 8 6 6 2 1 2 6 5 7 5 5 6 6 6 6 5 4 4 3 3 3 3 3 2 2 3 3 3 2 2 1 1 1 1 1 1 1 2 2 3 2 3 3 3 3 3 3
6 8 5 5 4 4 2 2 9 7 6 6 7 7 6 6 6 5 5 5 4 4 4 3 3 2 2 3 2 3 3 2 2 2 2 1 1 1 2 1 2 2 3 3 3 3 3 3 3
4 8 9 6 5 4 2 4 8 5 4 3 4 5 5 6 6 6 6 6 5 5 5 4 3 3 2 2 2 2 2 1 1 1 1 2 2 2 2 1 1 2 2 2 2 2 3 2 3
6 3 6 8 3 1 4 6 7 1 0 2 4 5 6 6 6 6 5 6 6 5 5 5 4 3 2 2 2 2 2 2 2 1 1 1 1 1 1 1 1 1 1 1 1 1 2 2 2
5 9 6 7 6 2 3 4 5 4 4 4 5 6 6 5 5 5 5 5 5 4 4 4 4 3 2 2 2 2 2 2 2 1 1 0 1 1 1 1 0 0 1 1 1 1 1 1 1
4 5 6 5 5 7 3 8 7 9 8 8 8 7 7 7 6 5 4 4 4 4 3 3 3 3 2 2 2 2 1 1 1 1 1 0 0 1 1 1 0 0 0 0 1 1 0 1 1
3 6 8 6 4 4 4 9 5 6 7 8 7 6 6 6 5 5 5 5 4 4 3 3 3 3 2 2 2 2 1 2 2 1 1 1 1 1 1 1 1 1 1 0 0 1 0 1 0
Wind_Direction
148 140 142 92 55 50 33 2 35 55 52 41 67 79 86 67 92 130 126 123 119 116 116 120 115 111 108 105 104 103 102 102 103 104 105 106 108 108 108 109 112 114 115 115 115 116 118 119 120
145 147 109 62 72 60 8 354 51 64 123 114 73 69 70 62 65 106 123 128 119 119 111 120 120 116 112 108 105 104 104 103 103 104 105 106 108 110 111 112 113 113 113 114 115 118 119 119 119
153 152 85 69 77 125 147 122 108 98 85 63 66 59 69 87 112 129 141 129 112 110 108 130 124 120 115 111 110 109 107 107 107 106 106 106 108 111 112 112 112 112 113 114 116 118 118 118 118
132 65 56 64 62 112 154 158 131 107 58 49 72 61 59 84 131 129 128 126 116 111 113 134 127 123 118 115 113 111 108 106 105 105 107 107 108 109 110 111 111 111 113 115 117 117 117 118 119
73 76 59 45 29 45 87 130 109 92 73 59 71 76 43 31 101 117 124 125 124 117 112 130 130 125 121 118 115 111 110 108 108 109 109 110 110 110 110 110 111 113 113 114 115 115 117 117 116
66 67 76 66 42 50 72 84 83 81 85 79 75 77 38 85 110 122 122 121 125 125 114 120 132 129 125 122 118 113 111 111 112 112 111 111 111 111 110 109 109 109 110 113 112 114 115 114 115
98 90 110 127 98 79 119 98 97 103 94 94 98 88 67 102 110 113 107 106 109 109 100 84 95 116 125 124 122 116 112 110 112 113 114 114 112 111 110 111 110 110 112 114 116 117 117 118 118
115 96 92 119 141 162 134 106 105 112 109 119 110 127 166 166 121 104 91 87 95 97 101 96 77 69 75 104 128 124 118 115 115 116 116 112 110 109 109 107 112 111 110 112 113 116 116 117 118
84 79 140 187 170 168 139 120 121 90 105 98 92 137 153 133 125 119 111 106 126 137 104 108 102 94 88 110 138 124 125 120 110 109 111 94 65 67 88 109 115 111 109 113 116 119 111 108 106
82 114 203 195 167 151 142 130 135 106 104 86 77 89 121 134 142 150 161 172 176 179 191 171 154 152 130 128 83 62 75 73 70 69 79 74 69 58 75 95 110 112 106 105 106 99 92 90 83
104 154 184 139 135 129 130 123 115 125 156 183 153 144 144 149 155 169 179 182 188 189 195 186 178 164 163 125 104 75 66 66 65 80 93 88 69 51 45 42 55 61 72 67 65 65 67 79 90
97 98 128 133 118 120 129 121 107 148 188 155 146 149 152 161 170 180 183 184 182 187 200 189 177 172 173 153 128 132 118 105 103 106 114 109 94 74 63 59 50 50 53 70 69 70 66 77 97
80 77 74 100 99 107 104 103 115 103 106 117 128 142 158 170 177 182 177 176 175 190 201 195 185 183 169 166 208 164 150 145 150 139 149 150 150 156 130 91 66 52 54 75 83 89 92 94 122
106 82 79 85 93 97 106 87 92 133 124 127 138 151 165 175 173 167 170 178 182 190 189 182 184 179 162 171 185 176 171 176 160 183 197 184 175 174 168 159 144 197 123 131 146 147 131 107 119
89 79 61 67 90 111 103 56 92 149 135 139 149 158 166 177 171 178 183 182 182 179 175 178 181 167 167 181 189 176 181 175 186 207 201 191 181 187 183 174 194 218 190 121 98 94 93 100 111
60 69 79 265 108 118 112 185 204 146 142 150 159 165 171 184 186 186 176 171 167 160 163 184 183 167 175 175 176 166 166 171 194 203 198 198 193 189 183 190 218 212 173 140 133 130 105 98 135
42 92 144 214 146 130 125 191 181 151 150 160 171 172 170 179 197 193 176 171 166 166 166 173 168 164 174 168 153 155 157 175 201 198 197 199 199 192 183 199 213 188 167 169 180 145 156 177 183
178 144 163 203 189 119 131 185 148 155 154 167 175 173 167 188 213 191 178 172 163 160 161 164 160 162 159 137 114 99 107 178 210 209 208 199 200 194 182 192 198 177 171 182 164 162 168 181 188
146 137 149 229 138 116 139 158 165 164 166 177 183 183 183 205 192 163 164 161 154 154 156 165 167 168 150 140 145 158 208 212 229 229 218 209 205 194 185 196 191 180 186 199 182 165 175 196 148
135 127 130 55 60 103 117 75 149 175 197 196 191 192 190 192 184 172 158 160 167 167 170 172 184 182 179 166 156 162 173 196 215 247 236 222 210 203 202 192 196 191 185 186 189 172 169 203 168
144 159 166 148 68 51 79 4 339 261 226 214 195 193 191 189 194 187 175 172 165 176 185 189 192 190 188 167 123 97 75 53 42 306 267 255 229 220 213 199 194 195 189 200 203 189 184 199 206
203 190 147 131 108 44 79 264 288 274 260 233 216 201 198 190 184 181 176 177 182 191 179 175 176 179 172 153 154 159 171 193 221 227 241 281 261 240 220 199 197 198 196 205 213 198 194 185 206
163 100 107 104 106 71 36 122 284 305 258 248 227 210 200 184 178 182 183 183 181 174 164 164 153 165 166 158 172 178 198 208 211 217 233 292 294 261 226 197 191 198 202 209 216 201 198 195 199
119 76 60 53 68 60 266 156 270 235 227 235 219 209 196 181 175 177 171 155 159 158 156 160 169 191 183 170 177 186 199 199 199 230 232 260 278 278 257 210 197 202 204 214 218 211 204 209 205
93 91 50 14 17 257 268 196 250 249 233 216 207 201 189 173 168 167 166 165 168 168 168 166 174 195 183 172 182 183 186 188 204 223 224 236 262 267 262 229 206 209 212 215 209 205 210 208 206
151 133 150 175 204 266 317 240 258 272 257 211 187 180 168 168 172 178 179 177 179 176 170 167 177 192 182 180 193 179 172 184 224 227 227 226 241 257 265 230 209 212 215 219 201 205 218 209 211
129 134 148 123 126 76 286 288 302 333 318 158 163 168 178 180 178 183 181 179 181 178 177 179 179 187 188 185 177 168 170 189 231 236 234 252 262 269 283 248 227 226 214 202 182 201 229 213 213
126 139 104 112 134 203 289 274 248 235 218 198 189 194 191 178 177 181 180 180 180 178 174 168 168 181 184 174 179 174 170 188 216 197 209 243 295 349 4 346 280 236 186 156 160 192 216 203 237
114 93 99 103 139 148 211 264 229 207 200 199 202 194 184 182 184 185 176 163 154 152 158 165 166 167 169 173 171 156 153 160 153 153 163 146 24 37 34 15 359 10 76 166 174 196 180 206 247
138 150 143 142 181 161 167 261 274 212 201 195 198 190 180 177 174 169 161 151 150 157 160 165 164 168 172 161 146 149 120 113 124 122 103 85 56 36 49 58 57 41 37 50 129 274 226 210 248